Location: L�Ave Maria
(50.7161°N, 1.5911°E)
Time: 23:00:18
(UTC+00:00)

Cosmos 2074 Rocket - Pass Details

Date: 10 July 2020
Orbit: 967 x 986 km, 82.9° (Epoch: 14 August)

Event Time Altitude Azimuth Distance (km) Brightness Sun altitude
Exits shadow 21:50:33 - 194° (SSW) 3,245 6.3 -11.9°
Reaches altitude 10° 21:51:58 10° 195° (SSW) 2,712 5.9 -12.0°
Maximum altitude 21:58:11 76° 281° (W) 1,005 4.2 -12.5°
Drops below altitude 10° 22:04:25 10° 7° (N) 2,722 7.2 -12.9°
Sets 22:06:57 0° 10° (N) 3,672 8.0 -13.1°
